Regional Weather Roundup
Issued by NWS

Home | Current Version | Previous Version | Graphics & Text | Print | Product List | Glossary On
Versions: 1 2 3 4 5 6 7 8 9 10 11 12 13 14 15 16 17 18 19 20 21 22 23 24 25 26 27 28 29 30 31 32 33 34 35 36 37 38 39 40 41 42 43 44 45 46 47 48 49 50
000
ASUS45 KSLC 251810
RWRUT

UTAH REGIONAL WEATHER ROUNDUP
NATIONAL WEATHER SERVICE SALT LAKE CITY UT
1100 AM MST SUN JAN 25 2015

UTZ001>011-023>025-251900-

NORTHERN UTAH

CITY           SKY/WX    TMP DP  RH WIND       PRES   REMARKS
BRIGHAM CITY   CLOUDY    38  31  78 CALM      30.49R
HILL AFB       SUNNY     41  22  46 S3        30.46R
LOGAN          CLOUDY    34  30  85 CALM      30.48R
OGDEN          SUNNY     43  26  51 W5        30.46S
PROVO AIRPORT  MOSUNNY   37  25  60 VRB5      30.50R WCI  34
SALT LAKE CITY MOSUNNY   44  28  53 CALM      30.47R
VERNAL         MOSUNNY   32  18  56 VRB3      30.42S
WENDOVER       SUNNY     36  28  75 SE3       30.49R
HEBER CITY     PTSUNNY   36  28  75 CALM      30.48R
WEST JORDAN    SUNNY     45  28  53 SE6       30.47R

$$

UTZ012>022-026-027-251900-

SOUTHERN/CENTRAL UTAH

CITY           SKY/WX    TMP DP  RH WIND       PRES   REMARKS
BLANDING       SUNNY     48  24  38 SW3       30.42F
BRYCE CANYON   SUNNY     38  27  64 CALM      30.44R
CEDAR CITY     SUNNY     40  27  59 VRB3      30.43S
DELTA          SUNNY     41  29  62 CALM      30.46F
MILFORD        SUNNY     45  28  51 N15       30.45S
MOAB/CYNLANDS  SUNNY     38  18  44 CALM      30.41R
PRICE          SUNNY     39  21  48 SE3       30.39R
ST GEORGE      PTCLDY    50  27  40 SW3       30.37F
KANAB          SUNNY     54  27  35 NW7       30.39S

$$

REGIONAL REPORTS     COLORADO/ARIZONA

CITY           SKY/WX    TMP DP  RH WIND       PRES   REMARKS
CRAIG, CO      MOSUNNY   26  19  74 SE3       30.40R
GRAND JUNCTION SUNNY     40  18  41 VRB3      30.40S
RIFLE          MOSUNNY   36  19  50 CALM      30.42S
MONTROSE       SUNNY     40  18  41 VRB5      30.41F
CORTEZ         SUNNY     39  20  46 CALM      30.36S
PAGE, AZ       NOT AVBL
GRAND CANYON   SUNNY     50  22  33 NE14G21   30.36S
KINGMAN        SUNNY     57  23  26 N13       30.27R
FLAGSTAFF      SUNNY     49  21  33 NE15G26   30.36R

$$

REGIONAL REPORTS    NEVADA/IDAHO/WYOMING

CITY           SKY/WX    TMP DP  RH WIND       PRES   REMARKS
LAS VEGAS, NV  SUNNY     61  28  28 CALM      30.26S
ELY            SUNNY     40  30  67 E5        30.48S
ELKO           SUNNY     37  29  72 CALM      30.47R
POCATELLO, ID  CLOUDY    34  31  88 N7        30.46R WCI  28
BURLEY         PTSUNNY   40  31  70 N3        30.43F
EVANSTON, WY   MOSUNNY   37  30  75 SW12      30.44S WCI  29
ROCK SPRINGS   PTSUNNY   39  29  67 W23G30    30.34R WCI  28
KEMMERER       CLOUDY    34  32  93 W9        30.43R WCI  26

$$



USA.gov is the U.S. government's official web portal to all federal, state and local government web resources and services.